N78AL LDDU-LMML

Flight info

Callsign N78AL
Flight time 1h 23m
Altitude 39000
Route BEVIS Z748 CRAYE DCT OBAXU N982 GZO
Aircraft CL60/M-SADE3FGHIJ3J4J7P2RWXY/HB1D1

Departure

Time 2026-05-07 14:56
Airport Dubrovnik Ruđer Bošković Airport (LDDU)

Arrival

Time 2026-05-07 16:19
Airport Malta International Airport (LMML)
Time Latitude Longitude Altitude Speed Heading
2026-05-07 14:45 42.56015 18.26460 514 ft 0 kts 207°
2026-05-07 14:46 42.56020 18.26463 514 ft 2 kts 207°
2026-05-07 14:46 42.56033 18.26472 514 ft 2 kts 207°
2026-05-07 14:47 42.56046 18.26482 514 ft 2 kts 207°
2026-05-07 14:47 42.56060 18.26491 514 ft 2 kts 207°
2026-05-07 14:47 42.56068 18.26497 514 ft 1 kts 205°
2026-05-07 14:47 42.56078 18.26497 515 ft 1 kts 146°
2026-05-07 14:48 42.56082 18.26490 515 ft 0 kts 117°
2026-05-07 14:51 42.56089 18.26506 515 ft 7 kts 358°
2026-05-07 14:51 42.56113 18.26414 517 ft 12 kts 299°
2026-05-07 14:51 42.56165 18.26282 519 ft 16 kts 297°
2026-05-07 14:51 42.56194 18.26210 520 ft 7 kts 298°
2026-05-07 14:52 42.56222 18.26140 521 ft 9 kts 298°
2026-05-07 14:52 42.56258 18.26048 521 ft 12 kts 298°
2026-05-07 14:52 42.56303 18.25935 522 ft 14 kts 297°
2026-05-07 14:52 42.56352 18.25812 523 ft 12 kts 300°
2026-05-07 14:53 42.56402 18.25695 523 ft 15 kts 300°
2026-05-07 14:53 42.56456 18.25561 520 ft 16 kts 297°
2026-05-07 14:53 42.56504 18.25431 517 ft 16 kts 297°
2026-05-07 14:53 42.56567 18.25264 509 ft 21 kts 299°
2026-05-07 14:54 42.56632 18.25109 505 ft 19 kts 298°
2026-05-07 14:54 42.56702 18.24933 503 ft 21 kts 298°
2026-05-07 14:54 42.56762 18.24777 503 ft 17 kts 299°
2026-05-07 14:54 42.56831 18.24679 506 ft 13 kts 347°
2026-05-07 14:55 42.56916 18.24715 504 ft 12 kts 53°
2026-05-07 14:55 42.56924 18.24828 503 ft 13 kts 112°
2026-05-07 14:55 42.56826 18.25077 503 ft 69 kts 119°
2026-05-07 14:55 42.56443 18.26045 523 ft 151 kts 118°
2026-05-07 14:56 42.55885 18.27384 785 ft 167 kts 120°
2026-05-07 14:56 42.55217 18.28701 1478 ft 178 kts 126°
2026-05-07 14:56 42.54548 18.30233 1746 ft 189 kts 116°
2026-05-07 14:56 42.53961 18.31819 1980 ft 186 kts 116°
2026-05-07 14:57 42.53332 18.33428 2213 ft 202 kts 123°
2026-05-07 14:57 42.52121 18.34588 2547 ft 227 kts 165°
2026-05-07 14:57 42.50492 18.34411 2810 ft 251 kts 200°
2026-05-07 14:57 42.48811 18.33446 3021 ft 267 kts 203°
2026-05-07 14:58 42.47082 18.32455 3280 ft 270 kts 202°
2026-05-07 14:58 42.45281 18.31468 3563 ft 282 kts 201°
2026-05-07 14:58 42.43405 18.30487 3894 ft 293 kts 200°
2026-05-07 14:58 42.41470 18.29528 4257 ft 296 kts 199°
2026-05-07 14:59 42.39500 18.28604 4629 ft 298 kts 198°
2026-05-07 14:59 42.37532 18.27733 4999 ft 299 kts 197°
2026-05-07 14:59 42.35527 18.26900 5375 ft 301 kts 196°
2026-05-07 14:59 42.33505 18.26116 5752 ft 303 kts 195°
2026-05-07 15:00 42.31448 18.25394 6134 ft 304 kts 193°
2026-05-07 15:00 42.29378 18.24720 6517 ft 306 kts 193°
2026-05-07 15:00 42.27303 18.24046 6902 ft 308 kts 193°
2026-05-07 15:00 42.25164 18.23471 7293 ft 310 kts 186°
2026-05-07 15:01 42.22985 18.23195 7688 ft 312 kts 185°
2026-05-07 15:01 42.20811 18.22930 8083 ft 313 kts 185°
2026-05-07 15:01 42.18620 18.22658 8483 ft 315 kts 185°
2026-05-07 15:01 42.16396 18.22378 8889 ft 317 kts 185°
2026-05-07 15:02 42.14192 18.22100 9291 ft 319 kts 185°
2026-05-07 15:02 42.11956 18.21815 9700 ft 321 kts 185°
2026-05-07 15:02 42.09685 18.21523 10116 ft 322 kts 185°
2026-05-07 15:02 42.07409 18.21230 10534 ft 325 kts 185°
2026-05-07 15:03 42.05123 18.20934 10954 ft 327 kts 185°
2026-05-07 15:03 42.02844 18.20638 11374 ft 329 kts 185°
2026-05-07 15:03 42.00554 18.20340 11797 ft 329 kts 185°
2026-05-07 15:03 41.98233 18.20037 12221 ft 331 kts 185°
2026-05-07 15:04 41.95908 18.19733 12647 ft 334 kts 185°
2026-05-07 15:04 41.93589 18.19429 13075 ft 337 kts 185°
2026-05-07 15:04 41.91229 18.19086 13513 ft 339 kts 186°
2026-05-07 15:04 41.88888 18.18730 13950 ft 341 kts 186°
2026-05-07 15:05 41.86491 18.18366 14397 ft 343 kts 186°
2026-05-07 15:05 41.84071 18.17998 14850 ft 346 kts 186°
2026-05-07 15:05 41.81663 18.17633 15302 ft 348 kts 186°
2026-05-07 15:05 41.79250 18.17266 15756 ft 350 kts 186°
2026-05-07 15:06 41.76789 18.16893 16220 ft 353 kts 186°
2026-05-07 15:06 41.74332 18.16520 16684 ft 355 kts 186°
2026-05-07 15:06 41.71838 18.16142 17157 ft 358 kts 186°
2026-05-07 15:06 41.69360 18.15767 17628 ft 360 kts 186°
2026-05-07 15:07 41.66826 18.15383 18111 ft 363 kts 186°
2026-05-07 15:07 41.64308 18.15002 18591 ft 366 kts 186°
2026-05-07 15:07 41.61754 18.14615 19081 ft 368 kts 186°
2026-05-07 15:07 41.59168 18.14225 19577 ft 371 kts 186°
2026-05-07 15:08 41.56576 18.13833 20077 ft 374 kts 186°
2026-05-07 15:08 41.53951 18.13437 20584 ft 377 kts 186°
2026-05-07 15:08 41.51359 18.12948 21085 ft 380 kts 193°
2026-05-07 15:08 41.48898 18.11609 21578 ft 383 kts 211°
2026-05-07 15:09 41.46661 18.09570 22091 ft 386 kts 215°
2026-05-07 15:09 41.44443 18.07495 22620 ft 389 kts 215°
2026-05-07 15:09 41.42214 18.05421 23151 ft 392 kts 215°
2026-05-07 15:09 41.39944 18.03310 23694 ft 395 kts 215°
2026-05-07 15:10 41.37669 18.01197 24241 ft 398 kts 215°
2026-05-07 15:10 41.35404 17.99095 24787 ft 401 kts 215°
2026-05-07 15:10 41.33086 17.96946 25346 ft 404 kts 215°
2026-05-07 15:10 41.30769 17.94801 25907 ft 408 kts 215°
2026-05-07 15:11 41.28436 17.92643 26473 ft 410 kts 215°
2026-05-07 15:11 41.26052 17.90440 27049 ft 412 kts 215°
2026-05-07 15:11 41.23701 17.88270 27612 ft 413 kts 215°
2026-05-07 15:11 41.21339 17.86091 28173 ft 413 kts 215°
2026-05-07 15:12 41.18937 17.83878 28735 ft 414 kts 215°
2026-05-07 15:12 41.16565 17.81694 29282 ft 414 kts 215°
2026-05-07 15:12 41.14199 17.79519 29817 ft 414 kts 215°
2026-05-07 15:12 41.11800 17.77315 30350 ft 414 kts 215°
2026-05-07 15:13 41.09435 17.75144 30864 ft 413 kts 215°
2026-05-07 15:13 41.07065 17.72971 31367 ft 412 kts 215°
2026-05-07 15:13 41.04697 17.70801 31858 ft 412 kts 215°
2026-05-07 15:13 41.02313 17.68619 32338 ft 411 kts 215°
2026-05-07 15:14 40.99974 17.66480 32796 ft 410 kts 215°
2026-05-07 15:14 40.97627 17.64336 33242 ft 409 kts 215°
2026-05-07 15:14 40.95262 17.62177 33678 ft 408 kts 215°
2026-05-07 15:14 40.92917 17.60039 34097 ft 407 kts 215°
2026-05-07 15:15 40.90566 17.57896 34506 ft 406 kts 215°
2026-05-07 15:15 40.88229 17.55769 34897 ft 405 kts 215°
2026-05-07 15:15 40.85884 17.53636 35277 ft 404 kts 215°
2026-05-07 15:15 40.83553 17.51517 35640 ft 404 kts 215°
2026-05-07 15:16 40.81246 17.49423 35987 ft 403 kts 215°
2026-05-07 15:16 40.78917 17.47310 36328 ft 402 kts 215°
2026-05-07 15:16 40.76621 17.45229 36635 ft 401 kts 215°
2026-05-07 15:16 40.74296 17.43123 36938 ft 401 kts 215°
2026-05-07 15:17 40.71988 17.41035 37224 ft 400 kts 215°
2026-05-07 15:17 40.69686 17.38954 37496 ft 400 kts 215°
2026-05-07 15:17 40.67378 17.36870 37756 ft 399 kts 215°
2026-05-07 15:17 40.65114 17.34826 38001 ft 399 kts 214°
2026-05-07 15:18 40.62859 17.32793 38233 ft 399 kts 214°
2026-05-07 15:18 40.60556 17.30718 38460 ft 399 kts 214°
2026-05-07 15:18 40.58259 17.28650 38676 ft 398 kts 214°
2026-05-07 15:18 40.55946 17.26570 38884 ft 398 kts 214°
2026-05-07 15:19 40.53647 17.24504 39004 ft 401 kts 214°
2026-05-07 15:19 40.51314 17.22409 39002 ft 406 kts 214°
2026-05-07 15:19 40.46569 17.18154 39006 ft 416 kts 214°
2026-05-07 15:20 40.41695 17.13791 39002 ft 426 kts 214°
2026-05-07 15:20 40.36784 17.09403 39115 ft 431 kts 214°
2026-05-07 15:21 40.31763 17.04925 39127 ft 438 kts 214°
2026-05-07 15:21 40.26664 17.00385 39127 ft 445 kts 214°
2026-05-07 15:22 40.21630 16.95912 39126 ft 450 kts 214°
2026-05-07 15:22 40.16301 16.91185 39127 ft 455 kts 214°
2026-05-07 15:23 40.10995 16.86488 39127 ft 458 kts 214°
2026-05-07 15:23 40.05638 16.81755 39128 ft 459 kts 214°
2026-05-07 15:24 40.00415 16.77148 39128 ft 459 kts 214°
2026-05-07 15:24 39.95108 16.72476 39128 ft 459 kts 214°
2026-05-07 15:25 39.89818 16.67829 39128 ft 458 kts 214°
2026-05-07 15:25 39.84510 16.63174 39128 ft 458 kts 214°
2026-05-07 15:26 39.79195 16.58522 39127 ft 458 kts 214°
2026-05-07 15:26 39.73862 16.53863 39128 ft 458 kts 214°
2026-05-07 15:27 39.68563 16.49243 39128 ft 458 kts 214°
2026-05-07 15:27 39.63275 16.44640 39127 ft 458 kts 214°
2026-05-07 15:28 39.57953 16.40017 39128 ft 458 kts 214°
2026-05-07 15:28 39.52643 16.35413 39127 ft 458 kts 214°
2026-05-07 15:29 39.47347 16.30830 39128 ft 458 kts 213°
2026-05-07 15:29 39.41999 16.26211 39128 ft 458 kts 213°
2026-05-07 15:30 39.36701 16.21643 39127 ft 459 kts 213°
2026-05-07 15:30 39.31346 16.17034 39127 ft 459 kts 213°
2026-05-07 15:31 39.26035 16.12472 39127 ft 459 kts 213°
2026-05-07 15:31 39.20713 16.07909 39127 ft 459 kts 213°
2026-05-07 15:32 39.15396 16.03359 39128 ft 459 kts 213°
2026-05-07 15:32 39.10041 15.98785 39128 ft 459 kts 213°
2026-05-07 15:33 39.04734 15.94260 39128 ft 459 kts 213°
2026-05-07 15:33 38.99384 15.89707 39128 ft 459 kts 213°
2026-05-07 15:34 38.94076 15.85197 39127 ft 459 kts 213°
2026-05-07 15:34 38.88736 15.80669 39128 ft 459 kts 213°
2026-05-07 15:35 38.83423 15.76171 39128 ft 459 kts 213°
2026-05-07 15:35 38.78077 15.71655 39128 ft 459 kts 213°
2026-05-07 15:36 38.72717 15.67134 39128 ft 459 kts 213°
2026-05-07 15:36 38.67368 15.62631 39128 ft 459 kts 213°
2026-05-07 15:37 38.62040 15.58154 39128 ft 459 kts 213°
2026-05-07 15:37 38.56706 15.53680 39128 ft 459 kts 213°
2026-05-07 15:38 38.51348 15.49194 39128 ft 459 kts 213°
2026-05-07 15:38 38.46022 15.44743 39128 ft 459 kts 213°
2026-05-07 15:39 38.40659 15.40269 39128 ft 459 kts 213°
2026-05-07 15:39 38.35314 15.35818 39128 ft 459 kts 213°
2026-05-07 15:40 38.29955 15.31364 39128 ft 459 kts 213°
2026-05-07 15:40 38.24592 15.26913 39127 ft 459 kts 213°
2026-05-07 15:41 38.19313 15.22541 39128 ft 459 kts 213°
2026-05-07 15:41 38.13919 15.18081 39127 ft 459 kts 213°
2026-05-07 15:42 38.08660 15.13741 39127 ft 459 kts 213°
2026-05-07 15:42 38.03290 15.09317 39127 ft 459 kts 213°
2026-05-07 15:43 37.97898 15.04883 39127 ft 459 kts 213°
2026-05-07 15:43 37.92551 15.00493 39126 ft 459 kts 213°
2026-05-07 15:44 37.87177 14.96089 39126 ft 459 kts 213°
2026-05-07 15:44 37.81787 14.91680 39126 ft 459 kts 213°
2026-05-07 15:45 37.76410 14.87289 39126 ft 459 kts 213°
2026-05-07 15:45 37.71061 14.82928 39127 ft 459 kts 213°
2026-05-07 15:46 37.62970 14.76347 39127 ft 458 kts 213°
2026-05-07 15:47 37.57578 14.71971 38915 ft 444 kts 213°
2026-05-07 15:47 37.54944 14.69835 38323 ft 443 kts 213°
2026-05-07 15:47 37.52359 14.67741 37583 ft 446 kts 213°
2026-05-07 15:47 37.49759 14.65638 36806 ft 448 kts 213°
2026-05-07 15:48 37.47121 14.63505 36018 ft 450 kts 213°
2026-05-07 15:48 37.44466 14.61360 35196 ft 452 kts 213°
2026-05-07 15:48 37.41826 14.59229 34349 ft 454 kts 213°
2026-05-07 15:48 37.39170 14.57087 33477 ft 456 kts 213°
2026-05-07 15:49 37.36593 14.55010 32766 ft 454 kts 213°
2026-05-07 15:49 37.33844 14.52797 32146 ft 448 kts 213°
2026-05-07 15:49 37.31195 14.50667 31569 ft 443 kts 213°
2026-05-07 15:49 37.28582 14.48566 30979 ft 438 kts 213°
2026-05-07 15:50 37.26015 14.46505 30377 ft 433 kts 213°
2026-05-07 15:50 37.23445 14.44453 29764 ft 429 kts 212°
2026-05-07 15:50 37.20753 14.42891 29162 ft 425 kts 197°
2026-05-07 15:50 37.17813 14.42234 28541 ft 421 kts 185°
2026-05-07 15:51 37.14869 14.41963 27889 ft 418 kts 184°
2026-05-07 15:51 37.11930 14.41689 27182 ft 417 kts 185°
2026-05-07 15:51 37.09045 14.41417 26421 ft 417 kts 185°
2026-05-07 15:51 37.06108 14.41141 25590 ft 418 kts 185°
2026-05-07 15:52 37.03202 14.40869 25088 ft 409 kts 185°
2026-05-07 15:52 37.00372 14.40603 24748 ft 398 kts 185°
2026-05-07 15:52 36.97627 14.40345 24384 ft 389 kts 185°
2026-05-07 15:52 36.94947 14.40094 24222 ft 374 kts 185°
2026-05-07 15:53 36.92367 14.39852 24006 ft 363 kts 185°
2026-05-07 15:53 36.89844 14.39615 23633 ft 358 kts 185°
2026-05-07 15:53 36.87362 14.39382 23185 ft 355 kts 185°
2026-05-07 15:53 36.84889 14.38974 22712 ft 352 kts 191°
2026-05-07 15:54 36.82488 14.38421 22224 ft 350 kts 191°
2026-05-07 15:54 36.80064 14.37864 21736 ft 347 kts 191°
2026-05-07 15:54 36.77695 14.37322 21270 ft 345 kts 191°
2026-05-07 15:54 36.75351 14.36785 20813 ft 343 kts 191°
2026-05-07 15:55 36.73006 14.36248 20361 ft 340 kts 191°
2026-05-07 15:55 36.70729 14.35728 19924 ft 338 kts 191°
2026-05-07 15:55 36.68391 14.35193 19477 ft 336 kts 191°
2026-05-07 15:55 36.66097 14.34670 19042 ft 333 kts 190°
2026-05-07 15:56 36.63771 14.34139 18605 ft 331 kts 190°
2026-05-07 15:56 36.61552 14.33633 18192 ft 329 kts 190°
2026-05-07 15:56 36.59277 14.33115 17773 ft 327 kts 190°
2026-05-07 15:56 36.57022 14.32601 17362 ft 325 kts 190°
2026-05-07 15:57 36.54805 14.32097 16962 ft 323 kts 190°
2026-05-07 15:57 36.52581 14.31591 16565 ft 321 kts 190°
2026-05-07 15:57 36.50386 14.31092 16179 ft 319 kts 190°
2026-05-07 15:57 36.48222 14.30600 15804 ft 317 kts 190°
2026-05-07 15:58 36.46068 14.30110 15436 ft 315 kts 190°
2026-05-07 15:58 36.43917 14.29620 15074 ft 314 kts 190°
2026-05-07 15:58 36.41730 14.29123 14712 ft 312 kts 190°
2026-05-07 15:58 36.39590 14.28637 14363 ft 310 kts 190°
2026-05-07 15:59 36.37449 14.28151 14020 ft 309 kts 190°
2026-05-07 15:59 36.35323 14.27668 13686 ft 307 kts 190°
2026-05-07 15:59 36.33215 14.27190 13362 ft 306 kts 190°
2026-05-07 15:59 36.31126 14.26717 13046 ft 304 kts 190°
2026-05-07 16:00 36.29042 14.26245 12737 ft 303 kts 190°
2026-05-07 16:00 36.26981 14.25778 12436 ft 301 kts 190°
2026-05-07 16:00 36.24910 14.25310 12140 ft 300 kts 190°
2026-05-07 16:00 36.22855 14.24845 11852 ft 299 kts 190°
2026-05-07 16:01 36.20816 14.24384 11572 ft 298 kts 190°
2026-05-07 16:01 36.18799 14.23928 11330 ft 295 kts 190°
2026-05-07 16:01 36.16776 14.23471 11339 ft 283 kts 190°
2026-05-07 16:01 36.14841 14.23035 11342 ft 273 kts 190°
2026-05-07 16:02 36.13001 14.22620 11339 ft 264 kts 190°
2026-05-07 16:02 36.11203 14.22214 11257 ft 260 kts 190°
2026-05-07 16:02 36.09432 14.21815 11111 ft 258 kts 190°
2026-05-07 16:02 36.07650 14.21414 10947 ft 257 kts 190°
2026-05-07 16:03 36.05903 14.21020 10782 ft 256 kts 190°
2026-05-07 16:03 36.04133 14.20851 10607 ft 255 kts 172°
2026-05-07 16:03 36.02452 14.21596 10415 ft 255 kts 148°
2026-05-07 16:03 36.00993 14.22816 10243 ft 254 kts 145°
2026-05-07 16:04 35.99534 14.24048 10060 ft 250 kts 145°
2026-05-07 16:04 35.98091 14.25261 9712 ft 250 kts 145°
2026-05-07 16:04 35.96645 14.26477 9368 ft 250 kts 145°
2026-05-07 16:04 35.95208 14.27684 9039 ft 249 kts 145°
2026-05-07 16:05 35.93770 14.28891 8710 ft 248 kts 145°
2026-05-07 16:05 35.92345 14.30087 8381 ft 247 kts 145°
2026-05-07 16:05 35.90933 14.31272 8054 ft 246 kts 145°
2026-05-07 16:05 35.89508 14.32466 7722 ft 244 kts 145°
2026-05-07 16:06 35.88097 14.33649 7389 ft 243 kts 145°
2026-05-07 16:06 35.86685 14.34831 7053 ft 242 kts 145°
2026-05-07 16:06 35.85307 14.35985 6723 ft 241 kts 145°
2026-05-07 16:06 35.83911 14.37153 6386 ft 240 kts 145°
2026-05-07 16:07 35.82538 14.38302 6052 ft 239 kts 145°
2026-05-07 16:07 35.81163 14.39450 5715 ft 237 kts 145°
2026-05-07 16:07 35.79795 14.40594 5377 ft 236 kts 145°
2026-05-07 16:07 35.78432 14.41732 5037 ft 235 kts 145°
2026-05-07 16:08 35.77085 14.42856 4697 ft 234 kts 145°
2026-05-07 16:08 35.75721 14.43994 4351 ft 233 kts 145°
2026-05-07 16:08 35.74370 14.45121 4008 ft 232 kts 145°
2026-05-07 16:08 35.73048 14.46224 3672 ft 230 kts 145°
2026-05-07 16:09 35.71704 14.47343 3332 ft 229 kts 145°
2026-05-07 16:09 35.70385 14.48443 3045 ft 226 kts 145°
2026-05-07 16:09 35.69092 14.49519 2997 ft 227 kts 145°
2026-05-07 16:09 35.67777 14.50614 3073 ft 222 kts 145°
2026-05-07 16:10 35.66548 14.51636 3168 ft 204 kts 145°
2026-05-07 16:10 35.65378 14.52609 3163 ft 201 kts 145°
2026-05-07 16:10 35.64216 14.53576 3167 ft 200 kts 145°
2026-05-07 16:10 35.63059 14.54537 3168 ft 200 kts 145°
2026-05-07 16:11 35.61905 14.55496 3168 ft 200 kts 145°
2026-05-07 16:11 35.60758 14.56454 3167 ft 199 kts 144°
2026-05-07 16:11 35.59838 14.57728 3164 ft 200 kts 117°
2026-05-07 16:11 35.59580 14.59344 3171 ft 193 kts 86°
2026-05-07 16:12 35.60020 14.60883 3173 ft 191 kts 56°
2026-05-07 16:12 35.60925 14.62093 3175 ft 189 kts 44°
2026-05-07 16:12 35.61862 14.63226 3172 ft 189 kts 44°
2026-05-07 16:12 35.62794 14.64364 3170 ft 188 kts 44°
2026-05-07 16:13 35.63726 14.65501 3168 ft 188 kts 45°
2026-05-07 16:13 35.64658 14.66638 3169 ft 188 kts 45°
2026-05-07 16:13 35.65595 14.67782 3168 ft 188 kts 45°
2026-05-07 16:13 35.66602 14.68784 3163 ft 188 kts 27°
2026-05-07 16:14 35.67890 14.69048 3162 ft 188 kts 353°
2026-05-07 16:14 35.69074 14.68379 3169 ft 188 kts 321°
2026-05-07 16:14 35.69999 14.67235 3168 ft 187 kts 313°
2026-05-07 16:14 35.70898 14.66088 3141 ft 186 kts 315°
2026-05-07 16:15 35.71822 14.64947 3157 ft 188 kts 315°
2026-05-07 16:15 35.72749 14.63802 3157 ft 188 kts 315°
2026-05-07 16:15 35.73682 14.62652 2939 ft 189 kts 315°
2026-05-07 16:15 35.74602 14.61518 2715 ft 188 kts 315°
2026-05-07 16:16 35.75524 14.60381 2465 ft 186 kts 315°
2026-05-07 16:16 35.76443 14.59248 2220 ft 182 kts 315°
2026-05-07 16:16 35.77319 14.58167 1992 ft 171 kts 315°
2026-05-07 16:16 35.78152 14.57140 1755 ft 168 kts 315°
2026-05-07 16:17 35.78959 14.56145 1541 ft 154 kts 315°
2026-05-07 16:17 35.79652 14.55289 1387 ft 134 kts 315°
2026-05-07 16:17 35.80316 14.54468 1167 ft 132 kts 315°
2026-05-07 16:17 35.80952 14.53683 992 ft 129 kts 315°
2026-05-07 16:18 35.81580 14.52908 827 ft 125 kts 315°
2026-05-07 16:18 35.82197 14.52145 657 ft 125 kts 315°
2026-05-07 16:18 35.82813 14.51385 489 ft 124 kts 315°
2026-05-07 16:18 35.83424 14.50629 337 ft 122 kts 315°
2026-05-07 16:19 35.84013 14.49902 269 ft 111 kts 315°
2026-05-07 16:19 35.84479 14.49332 255 ft 52 kts 313°
2026-05-07 16:19 35.84524 14.49272 255 ft 0 kts 311°
2026-05-07 16:19 35.84526 14.49268 255 ft 1 kts 311°
2026-05-07 16:20 35.84624 14.49141 258 ft 32 kts 319°
2026-05-07 16:20 35.84785 14.49009 258 ft 32 kts 334°
2026-05-07 16:20 35.84921 14.48993 259 ft 11 kts 54°
2026-05-07 16:20 35.84902 14.49110 256 ft 18 kts 120°
2026-05-07 16:21 35.84921 14.49229 253 ft 13 kts 115°
2026-05-07 16:21 35.84872 14.49313 251 ft 8 kts 165°
2026-05-07 16:21 35.84827 14.49285 251 ft 1 kts 218°